Showing default

FLOCK 4Q 4, 58327

Orbit data source: Space-Track

FLOCK 4Q 4, 58327 is a payload satellite owned by Planet (US) in SSO that was launched on Sat, 11 Nov 2023 UTC via an FALCON 9 launch vehicle from the Air Force Western Test Range (AFWTR). Payload-class satellites include a variety of spacecraft equipped with specific instruments for various scientific and technological missions. These include communications satellites like Starlink; space stations such as the ISS; scientific satellites like the Hubble; Earth observation satellites from companies like Planet Labs, Umbra, and HawkEye 360; GPS; miniature CubeSats for education and research; and military/defense satellites.

Loading next visibility...
Identifier
58327, 2023-174BZ
Orbit
SSO
Country
Flag of USUS
Related business
Manufacturer
Planet
Mission
Operational Commercial Imaging
Bus & Motor
CUBESAT 3U, Unknown motor
Mass
5.7 kg wet, 5.7 kg dry
Launch date (UTC)
2023-11-11 (2 years ago)
Launch vehicle
FALCON 9
Launch site
Air Force Western Test Range (AFWTR)
Object type
Payload
Rocket body
Debris
Shape & HBR
Box + 2 Pan, 1.0 m
Radar Cross Section
0.072 m², Medium (>0.1 m² and < 1m²)

Expand to show TLE details & history
Last TLE update: 1 day ago

TLE from 1 day ago
0 FLOCK 4Q 4
1 58327U 23174BZ  25348.69416886  .00016440  00000-0  41136-3 0  9995
2 58327  97.3995  68.3696 0008090 110.0607 250.1511 15.40147816117088
Epoch: 2025-12-14T16:39Z
TLE epoch observation values (Epoch: 2025-12-14T16:39:36.189Z)
Latitude
0.00002°
Longitude
94.8654°
Altitude
450.669 km
Speed
7.641 km/s
True Right ascension
04h 33m 28s
True Declination
0° 00' 00"
Sunlit
Object was in full shadow at epoch
Visualization orbit readout
Latitude
Unknown
Longitude
Unknown
Altitude
Unknown
Speed
Unknown
Apparent Right ascension
Unknown
Apparent Declination
Unknown
Sunlit
N/A
Visualization observer readout
Local Sidereal Time
19:00:53
Azimuth
Unknown
Elevation
Unknown
Doppler factor
Unknown
Orbital elements
Apogee altitude
448.129 km
Perigee altitude
437.093 km
Semi-major axis
6,820.748 km
Eccentricity
0.00081
Inclination
97.3995°
RAAN
68.3696°
Arg. of periapsis
110.0607°
True anomaly
250.06393°
Mean anomaly
250.1511°
Eccentric anomaly
250.10751°
Mean motion
3.85297 °/min
Orbital period
93.43 mins
BSTAR
0.00041136
Loading maneuver chart data...
Computing Atmospheric mass density...
Loading historical data...
Loading historical data...
Loading historical data...
Loading historical data...
Loading historical data...
Loading historical data...
Loading historical data...

Documentation

Showing up to 5 results
|